Sally Plumb Plumb

Silver Star - 3,042 Points (23 9 1940 / Haverhill Suffolk England)

Stats

» Click to list general statistics » OR, select a date :

General Statistics

Visitors of the poet

Number of visitors of the poet’s mainpage in PoemHunter.Com

Attention : Numbers in this table does not indicate the total hits of poems of the poet, but indicates the hits of the poet’s main page.

Date Hits
08/29/2016 Monday 489
100%
08/28/2016 Sunday 353
72%
08/27/2016 Saturday 259
52%
08/26/2016 Friday 336
68%
08/25/2016 Thursday 337
68%
08/24/2016 Wednesday 401
82%
08/23/2016 Tuesday 208
42%
08/22/2016 Monday 125
25%
08/21/2016 Sunday 118
24%
08/20/2016 Saturday 92
18%
08/19/2016 Friday 140
28%
08/18/2016 Thursday 115
23%
08/17/2016 Wednesday 92
18%
08/16/2016 Tuesday 69
14%
08/15/2016 Monday 202
41%
08/14/2016 Sunday 244
49%
08/13/2016 Saturday 137
28%
08/12/2016 Friday 129
26%
08/11/2016 Thursday 144
29%
08/10/2016 Wednesday 95
19%

Reader rating & num.of MyPoemList’s

Click the captions of columns to change the order.

# Poem Title Submit Date Reader Rating Num.of MyPoemList’s
Rating Num.R.
1 Midnight 04/24/2016 10.0 1 0
2 Choice 04/23/2016 10.0 1 0
3 Escape 04/22/2016 -- 0 0
4 Refugee 02/21/2016 -- 0 0
5 Jacobs Ladder 02/20/2016 -- 0 0
6 The Big Cheat 02/19/2016 -- 0 0
7 Squaw 11/01/2015 10.0 3 1
8 Division 10/06/2015 -- 0 0
9 Vanity 08/25/2015 -- 0 0
10 Your Call 08/25/2015 -- 0 0
11 United 06/27/2015 -- 0 0
12 Sacrifice 06/27/2015 -- 0 0
13 Prayer For Night 06/27/2015 -- 0 0
14 Rocker Song 03/31/2015 -- 0 0
15 Nightwatch 11/04/2014 10.0 1 0
16 A Boy And A Frog (Kids Stuff) 10/23/2014 -- 0 1
17 The Slow Walk 08/09/2014 10.0 1 0
18 After 08/08/2014 -- 0 0
19 The Contest 06/05/2014 -- 0 0
20 Barn Owl 05/09/2014 10.0 1 0
21 Listen 05/08/2014 -- 0 0
22 Harmony 05/07/2014 10.0 1 0
23 Conflict 02/24/2014 10.0 2 0
24 Confession 02/11/2014 -- 0 0
25 Night Bird 02/07/2014 -- 0 0
26 Ebb Tide 02/03/2014 10.0 1 0
27 Many Hollows 01/03/2014 7.5 2 0
28 Night Ways 01/02/2014 -- 0 0
29 The Lion 01/01/2014 7.0 1 0
30 The Appointment 12/24/2013 -- 0 0
31 Flippancy 12/22/2013 9.0 2 0
32 Hit 12/21/2013 10.0 1 0
33 Negativity 11/11/2013 10.0 2 0
34 Too Old 10/28/2013 10.0 3 0
35 Three Phases 09/28/2013 10.0 1 0
36 Frightened Fourteen (Kids Stuff) 09/27/2013 10.0 1 0
37 Killing Time 09/23/2013 8.5 2 0
38 Rumour 08/30/2013 -- 0 0
39 Separation 08/14/2013 10.0 3 2
40 Shades Of Love 08/01/2013 10.0 4 1
41 Getting Fat 06/28/2013 9.7 3 0
42 Infinity 05/08/2013 9.8 10 1
43 Twilight 03/30/2013 10.0 4 2
44 Mind Healer 03/19/2013 9.5 2 0
45 Mute 03/18/2013 9.5 4 0
46 Down The Drain 03/07/2013 9.7 3 0
47 Monday Morning 03/06/2013 10.0 1 0
48 Imagination 03/05/2013 10.0 1 0
49 Earth Fire 12/08/2012 10.0 1 0
50 Nightmare 10/20/2012 10.0 2 0
51 Workday Weekday 10/17/2012 -- 0 0
52 Remorse 10/07/2012 -- 0 0
53 High Hopes 10/06/2012 -- 0 0
54 Lost For Words 10/04/2012 10.0 1 0
55 Confused? 08/15/2012 -- 0 0
56 Breakdown 08/14/2012 10.0 4 0
57 Departure 08/07/2012 10.0 2 0
58 Seagull 07/11/2012 10.0 4 0
59 Late Friday Night 06/29/2012 9.7 3 0
60 Rig Divers North Sea 06/28/2012 -- 0 0
61 Gossips 06/27/2012 10.0 3 0
62 Another Shade Of Blue 06/27/2012 10.0 5 1
63 Score 04/22/2012 10.0 2 0
64 Request 04/21/2012 10.0 1 0
65 Tough Love 04/18/2012 10.0 3 0
66 Stairway 03/23/2012 10.0 1 0
67 Wind And Rain 02/20/2012 10.0 3 0
68 Dawn 02/09/2012 -- 0 0
69 Defeat 02/08/2012 7.0 3 0
70 Jack Spratt 12/27/2011 9.7 3 0
71 Beyond 12/06/2011 -- 0 0
72 Undressed 12/05/2011 -- 0 0
73 Letter 11/28/2011 10.0 1 0
74 Fantasia 11/24/2011 -- 0 0
75 Betrayel 11/22/2011 -- 0 0
76 Grandmama 11/21/2011 -- 0 0
77 Crimes 11/01/2011 9.7 3 0
78 Swing High Swing Low 10/07/2011 10.0 1 1
79 Destiny 10/05/2011 10.0 1 0
80 Silken Thread 10/02/2011 -- 0 0
81 Seeing You 10/01/2011 10.0 1 0
82 Fractions 09/30/2011 -- 0 0
83 Question 09/28/2011 -- 0 0
84 Birth 09/09/2011 -- 0 0
85 The Voice Of Seduction 09/07/2011 -- 0 0
86 Second Depression 08/10/2011 -- 0 0
87 Crumbs 08/06/2011 10.0 1 0
88 Night Sky 07/08/2011 9.0 2 0
89 The Social Divide 07/04/2011 -- 0 0
90 Retort 07/01/2011 10.0 1 0
91 Mr Jones 06/15/2011 -- 0 0
92 Bitter Beginning 06/13/2011 -- 0 0
93 Imagine 06/03/2011 -- 0 0
94 Gabriel 06/02/2011 -- 0 0
95 The Shift Worker 05/25/2011 8.0 1 0
96 Downtown 05/20/2011 -- 0 0
97 Skin 05/19/2011 -- 0 0
98 Natural Tempo 05/18/2011 10.0 2 0
99 Magical Night 04/14/2011 10.0 1 0
100 Conversation 04/12/2011 -- 0 0
101 Aunt Summer Rose (Kids Stuff) 04/08/2011 -- 0 0
102 Eden's Gate 04/07/2011 -- 0 0
103 First Season 03/29/2011 -- 0 0
104 November 03/09/2011 10.0 1 0
105 Chores 03/08/2011 10.0 1 0
106 Torment 03/05/2011 -- 0 0
107 Over Time 02/19/2011 -- 0 0
108 The Thaw 02/18/2011 10.0 1 0
109 Jukes Song 02/14/2011 -- 0 0
110 Thinks Party 02/12/2011 10.0 2 1
111 Predator 02/11/2011 -- 0 0
112 Headless 02/08/2011 6.0 1 0
113 Annie May 01/06/2011 10.0 1 0
114 Look 01/05/2011 -- 0 0
115 Slough Of Despond 12/11/2010 10.0 2 0
116 The Dryad 12/04/2010 -- 0 0
117 Christmas Day 12/03/2010 10.0 1 0
118 Snake Skin 12/01/2010 10.0 1 0
119 Opposition 11/12/2010 -- 0 0
120 Natures Way 10/13/2010 -- 0 0
121 Bad Rivers 10/12/2010 10.0 4 0
122 Calling Wind 10/01/2010 9.8 4 0
123 Decision 09/23/2010 10.0 1 0
124 Passing Tedious Time 08/26/2010 -- 0 0
125 Zero 08/10/2010 10.0 3 0
126 1957 08/04/2010 9.5 4 0
127 Singing Lesson 08/02/2010 -- 0 0
128 Evening At Home 06/29/2010 10.0 2 0
129 Not Tonight 06/28/2010 -- 0 0
130 6 P.M. 06/08/2010 9.5 2 0
131 Orange 06/01/2010 10.0 1 0
132 Yellow Iris 05/23/2010 10.0 1 0
133 Shower 05/22/2010 -- 0 0
134 Reunion 05/17/2010 -- 0 0
135 Shadow 05/16/2010 10.0 1 0
136 Explanation 05/15/2010 -- 0 0
137 Spirit 05/14/2010 10.0 2 1
138 The Haunted 05/13/2010 10.0 1 0
139 Live Music 05/13/2010 10.0 1 0
140 Wren 03/13/2010 10.0 1 0
141 Spring Weather 03/12/2010 -- 0 0
142 Breathing 02/09/2010 10.0 3 1
143 Unfamiliar Fantasy 01/22/2010 10.0 1 0
144 Climate Change 12/26/2009 10.0 1 0
145 Missing Person 12/25/2009 -- 0 0
146 Languor 12/24/2009 10.0 1 0
147 Side Affects 12/23/2009 10.0 2 0
148 Unspeakable 12/22/2009 10.0 1 0
149 Summer 12/14/2009 10.0 1 0
150 High 12/12/2009 -- 0 0
151 Speechless 12/05/2009 10.0 2 1
152 Insight 11/14/2009 10.0 3 0
153 The Haunted Sea (Kids Stuff) 11/05/2009 10.0 2 0
154 Flight 10/15/2009 10.0 3 0
155 Ripple 10/09/2009 10.0 1 0
156 Perfect Silence 10/07/2009 8.9 7 1
157 Starters 10/02/2009 10.0 1 0
158 Pastel 09/24/2009 10.0 3 0
159 Sleep 09/18/2009 10.0 4 0
160 Spirit Wings 09/07/2009 10.0 1 0
161 Annoyance 09/05/2009 10.0 3 0
162 Lyric 09/02/2009 10.0 3 0
163 Weeping Willow 08/29/2009 9.5 2 3
164 Ritual 08/12/2009 10.0 1 0
165 Enrichment 08/10/2009 10.0 1 0
166 Recruit 07/30/2009 10.0 1 0
167 Bebe 07/29/2009 10.0 3 1
168 Music 07/28/2009 10.0 2 0
169 Saturday Night And Sunday Morning 07/22/2009 -- 0 1
170 The Red Indian 07/10/2009 10.0 1 0
171 Be Kind Be Sweet 07/08/2009 9.5 2 1
172 Late Afternoon 07/07/2009 10.0 1 0
173 Left Undead 07/06/2009 -- 0 0
174 Cloud 07/02/2009 10.0 3 2
175 Foxglove 06/28/2009 10.0 1 0
176 The Chain 06/17/2009 -- 0 0
177 Song Of A Dying Infant 06/03/2009 10.0 1 0
178 Confrontation (Darfur) 05/29/2009 10.0 5 0
179 Late Summer 05/18/2009 -- 0 1
180 A Question Of God 05/17/2009 9.6 11 1
181 Death Of A Woman 05/12/2009 7.8 4 0
182 Angels 05/09/2009 10.0 6 1
183 A Dark Fire 05/08/2009 10.0 7 1
184 Fight 05/07/2009 10.0 2 0
185 We Are 05/06/2009 10.0 4 0
186 Shadow Street 05/05/2009 7.3 3 0
187 Rendezvous 05/04/2009 9.5 2 0
188 Lifting 05/03/2009 10.0 1 0
189 A Humorous Death 05/02/2009 10.0 11 3
190 Thought 05/01/2009 9.5 4 0
191 Leaving 04/30/2009 -- 0 0
192 The Queue 04/29/2009 10.0 1 0
193 Granpa 04/28/2009 10.0 1 0
194 Two Confused 04/27/2009 10.0 1 1
195 Breakfast 04/26/2009 9.7 7 1
196 Happiness Is Sacred 04/25/2009 10.0 1 0
197 Crucible 04/24/2009 9.7 3 0
198 Valentine 04/23/2009 10.0 2 1
199 Hettie 04/06/2009 10.0 2 0
200 Six A.M. 04/04/2009 -- 0 0
201 Diary 04/01/2009 9.3 3 2
202 Possession 03/31/2009 10.0 1 1
203 Pretence 03/30/2009 10.0 1 1
204 Sundial 03/29/2009 7.5 4 0
205 Sleep My Love 03/28/2009 10.0 2 2
206 Reynard 03/27/2009 -- 0 0
207 Lucifer 03/26/2009 -- 0 0
208 Picture 03/25/2009 10.0 1 2
209 Dream On 03/24/2009 10.0 1 2
210 Something Plus 03/23/2009 -- 0 1
211 Love 03/22/2009 10.0 1 0
212 Curse 03/21/2009 -- 0 0
213 Solitude 03/20/2009 10.0 1 1
214 Anger 03/19/2009 10.0 2 2
215 Moon Song 03/18/2009 10.0 2 2
216 Winter 03/15/2009 9.8 5 1
217 Summer Shade 03/15/2009 9.0 2 1
218 Skylark 03/15/2009 10.0 1 0
219 Simplicity 03/14/2009 10.0 1 0
220 Snowdrops 03/14/2009 10.0 1 2
221 Upside Down 03/14/2009 10.0 2 0
222 The Native 03/14/2009 10.0 1 0
223 Search 03/14/2009 10.0 2 0
224 Surprise Suprise 03/14/2009 10.0 1 0
225 Changeover 03/14/2009 10.0 3 1
226 He Is 03/14/2009 10.0 3 0
227 Guide 03/14/2009 10.0 2 1
228 Vow 03/14/2009 10.0 3 0
229 Cats 03/14/2009 9.5 2 1
230 Love After Death 03/14/2009 10.0 1 1
231 The Juveniles 03/14/2009 10.0 2 0
232 Serenade 03/14/2009 10.0 1 0
233 Poppies 03/14/2009 10.0 2 0
234 May 03/14/2009 10.0 1 0
235 Village Tree 03/14/2009 9.5 2 0
236 Sunrise 03/14/2009 10.0 2 1
237 Sparrows 03/14/2009 10.0 3 0
238 Figment 03/14/2009 10.0 2 1
239 A Slow Smoke 03/14/2009 9.8 4 1
240 Time Past 03/14/2009 10.0 2 2
241 Good Night 03/14/2009 10.0 2 1
242 The Satyr 03/14/2009 10.0 1 0
243 Somewhere 03/14/2009 10.0 1 1
244 Formation 03/14/2009 -- 0 1
245 Wildflowers Live On 03/14/2009 10.0 4 2
246 Apple Tree 03/14/2009 10.0 9 2
247 Purer Than White 03/14/2009 10.0 2 0
248 Goodnight Baby Love 03/14/2009 10.0 1 1
249 Storm 03/14/2009 10.0 1 2
250 Headstones 03/14/2009 10.0 1 0
251 Underfoot 03/14/2009 10.0 1 0
252 Fantasy 03/14/2009 10.0 3 1
253 Smile 03/14/2009 10.0 2 2
254 Judas 03/14/2009 10.0 1 0
255 Domestic 03/14/2009 10.0 2 0
256 Ghost 03/14/2009 10.0 2 2
257 Rowley 03/14/2009 -- 0 0
258 Starless 03/14/2009 10.0 2 2
259 Reflection 03/14/2009 -- 0 2
260 Pretty 03/14/2009 9.0 2 1
[Report Error]